Home > Weather > Vaughan > Past weeks

Flag for Canada Weather for the Past 2 Weeks in Vaughan, Ontario, Canada

Now
54 °F

Overcast.


Feels Like: 50 °F
Forecast: 46 / 60 °F
Wind: 10 mph from East

Location: Toronto Buttonville

Current Time: May 5, 2016 at 10:52:43 AM

Latest Report: May 5, 2016 at 10:00 AM


Visibility: 15 mi

Pressure: 29.85 "Hg

Humidity: 72%

Dew Point: 45 °F

Location of VaughanLocation

Historic Weather in Vaughan — Graph

°F

Vaughan Temperature Yesterday

Maximum temperature yesterday: 59 °F (at 1:00 PM)
Minimum temperature yesterday: 39 °F (at 4:00 AM)
Average temperature yesterday: 50 °F

High & Low Weather Summary for the Past Weeks

 TemperatureHumidityPressure
High64 °F (Apr 21, 12:00 PM)94% (Apr 21, 11:00 PM)30.37 "Hg (Apr 21, 11:00 PM)
Low32 °F (Apr 27, 4:00 AM)13% (Apr 20, 5:00 PM)29.71 "Hg (May 4, 4:00 PM)
Average46 °F60%30.01 "Hg
* Reported Apr 20 9:00 AM — May 5 9:00 AM, Vaughan, Weather by CustomWeather, © 2016

Note: Actual official high and low records may vary slightly from our data, if they occured in-between our weather recording intervals... More about our weather records

Advertising

Vaughan Weather History for the Previous 24 Hours

Scroll right to see more
 ConditionsComfort  
Time TempWeatherWind HumidityBarometerVisibility
9:00 AM
Thu, May 5
50 °FOvercast.6 mph82%29.84 "Hg14 mi
8:00 AM50 °FPartly sunny.9 mph82%29.83 "Hg13 mi
7:46 AM48 °FPartly sunny.10 mph87%29.83 "Hg12 mi
7:00 AM46 °FPassing clouds.8 mph87%29.81 "Hg12 mi
6:00 AM46 °FPassing clouds.7 mph87%29.80 "Hg12 mi
5:00 AM46 °FPassing clouds.8 mph87%29.79 "Hg12 mi
4:00 AM46 °FPassing clouds.7 mph82%29.78 "Hg15 mi
3:00 AM46 °FPassing clouds.7 mph82%29.77 "Hg15 mi
2:00 AM46 °FPassing clouds.6 mph82%29.78 "Hg15 mi
1:00 AM46 °FPassing clouds.5 mph82%29.78 "Hg15 mi
12:00 AM48 °FPassing clouds.5 mph76%29.78 "Hg15 mi
11:00 PM
Wed, May 4
50 °FPassing clouds.3 mph71%29.78 "Hg15 mi
10:00 PM50 °FPassing clouds.5 mph71%29.77 "Hg15 mi
9:00 PM52 °FBroken clouds.6 mph67%29.75 "Hg15 mi
8:00 PM54 °FBroken clouds.9 mph63%29.74 "Hg15 mi
7:00 PM55 °FBroken clouds.8 mph59%29.73 "Hg15 mi
6:00 PM57 °FPartly sunny.12 mph51%29.72 "Hg15 mi
5:00 PM57 °FBroken clouds.14 mph55%29.71 "Hg15 mi
4:00 PM59 °FBroken clouds.13 mph48%29.71 "Hg15 mi
3:00 PM59 °FBroken clouds.10 mph45%29.71 "Hg15 mi
2:00 PM59 °FBroken clouds.8 mph48%29.72 "Hg15 mi
1:00 PM59 °FPartly sunny.9 mph48%29.73 "Hg15 mi
12:00 PM55 °FBroken clouds.12 mph55%29.73 "Hg15 mi
11:00 AM54 °FBroken clouds.12 mph63%29.74 "Hg15 mi
10:00 AM54 °FBroken clouds.8 mph67%29.74 "Hg15 mi
Weather by CustomWeather, © 2016

See weather overviewHow to use our weather pages